Location: G�migny
(47.9646°N, 1.6950°E)
Time: 09:14:25
(UTC+00:00)

Cosmos 1605 Rocket - Pass Details

Date: 23 October 2019
Orbit: 944 x 1006 km, 82.9° (Epoch: 12 November)

Event Time Altitude Azimuth Distance (km) Brightness Sun altitude
Rises 17:51:28 0° 350° (N) 3,665 7.1 -10.8°
Reaches altitude 10° 17:54:00 10° 350° (N) 2,706 6.4 -11.2°
Maximum altitude 18:00:11 87° 264° (W) 960 4.0 -12.3°
Drops below altitude 10° 18:06:16 10° 175° (S) 2,660 6.3 -13.3°
Sets 18:08:44 0° 175° (S) 3,598 6.9 -13.7°
